Location: Heidgraben
(53.7081°N, 9.6576°E)
Time: 08:47:57
(UTC+00:00)

USA 215 - Pass Details

Date: 05 July 2020
Orbit: 1102 x 1106 km, 123.0° (Epoch: 08 August)

Event Time Altitude Azimuth Distance (km) Brightness Sun altitude
Rises 20:56:41 0° 60° (ENE) 3,927 6.1 -7.1°
Reaches altitude 10° 20:59:20 10° 68° (ENE) 2,966 5.4 -7.3°
Maximum altitude 21:05:31 43° 138° (SE) 1,508 3.6 -7.8°
Drops below altitude 10° 21:11:40 10° 208° (SSW) 2,954 5.2 -8.3°
Sets 21:14:18 0° 215° (SW) 3,909 5.9 -8.5°
